South Lake Tahoe, CA

12:22 AM PST on November 23, 2017 (GMT -0800)
Lake Tahoe

Weather History for KTVL - July, 2013

Change the Weather History Date:

Tuesday, July 23, 2013

  Actual Average Record
Temperature  
Mean Temperature 67 °F 62 °F  
Max Temperature 79 °F 82 °F 91 °F (1988)
Min Temperature 55 °F 42 °F 30 °F (1992)
Degree Days  
Heating Degree Days 0 4  
Month to date heating degree days 31 110  
Since 1 June heating degree days 225 420  
Since 1 July heating degree days 31 110  
Cooling Degree Days 2 1  
Month to date cooling degree days 59 11  
Year to date cooling degree days 80 12  
Since 1 June cooling degree days 80 12  
Growing Degree Days 17 (Base 50)    
Moisture  
Dew Point 50 °F    
Average Humidity 60    
Maximum Humidity 86    
Minimum Humidity 33    
Precipitation  
Precipitation 0.00 in - 0.59 in (1986)
Month to date precipitation 0.12  
Year to date precipitation 5.45  
Sea Level Pressure  
Sea Level Pressure 30.06 in    
Wind  
Wind Speed 3 mph (South)    
Max Wind Speed 26 mph    
Max Gust Speed 118 mph    
Visibility 10 miles    
Events      
T = Trace of Precipitation, MM = Missing Value Source: NWS Daily Summary

Daily Weather History Graph

Daily Weather History Graph

Search for Another Location

Airport or City:

Trip Planner

Search our weather history database for the weather conditions in past years. The results will help you decide how hot, cold, wet, or windy it might be!

Date:

Astronomy

Jul. 23, 2013 Rise Set
Actual Time 5:53 AM PDT 8:18 PM PDT
Civil Twilight 5:23 AM PDT 8:49 PM PDT
Nautical Twilight 4:45 AM PDT 9:26 PM PDT
Astronomical Twilight 4:03 AM PDT 10:08 PM PDT
Moon 8:52 PM PDT 7:06 AM PDT
Length of Visible Light 15h 26m
Length of Day
14h 25m
Full, 98% of the Moon is Illuminated
Jul 23
Full
Jul 29
Last Quarter
Aug 6
New
Aug 14
First Quarter
Aug 20
Full

Hourly Weather History & Observations

Time (PDT) Temp. Dew Point Humidity Pressure Visibility Wind Dir Wind Speed Gust Speed Precip Events Conditions
12:53 AM 60.1 °F 54.0 °F 80% 30.04 in 10.0 mi Calm Calm - 0.00 in   Clear
1:53 AM 60.1 °F 53.1 °F 78% 30.03 in 10.0 mi South 3.5 mph 118.5 mph N/A   Squalls
2:53 AM 60.1 °F 54.0 °F 80% 30.01 in 10.0 mi South 5.8 mph - N/A   Clear
3:53 AM 59.0 °F 54.0 °F 83% 30.01 in 10.0 mi South 4.6 mph - N/A   Clear
4:53 AM 57.9 °F 53.1 °F 84% 30.02 in 10.0 mi South 3.5 mph - N/A   Clear
5:53 AM 57.0 °F 52.0 °F 83% 30.04 in 10.0 mi SSW 5.8 mph - N/A   Clear
6:53 AM 57.9 °F 52.0 °F 81% 30.05 in 10.0 mi Calm Calm - N/A   Clear
7:53 AM 62.1 °F 52.0 °F 70% 30.06 in 10.0 mi Calm Calm - N/A   Clear
8:53 AM 68.0 °F 53.1 °F 59% 30.06 in 10.0 mi Calm Calm - N/A   Clear
9:53 AM 69.1 °F 53.1 °F 57% 30.06 in 10.0 mi SSE 3.5 mph - N/A   Clear
10:53 AM 70.0 °F 51.1 °F 51% 30.07 in 10.0 mi South 4.6 mph - N/A   Clear
11:53 AM 72.0 °F 46.9 °F 41% 30.08 in 10.0 mi South 4.6 mph - N/A   Clear
12:53 PM 73.9 °F 46.9 °F 38% 30.08 in 10.0 mi SE 4.6 mph - N/A   Clear
1:53 PM 75.0 °F 46.0 °F 36% 30.07 in 10.0 mi South 8.1 mph - N/A   Clear
2:53 PM 77.0 °F 46.9 °F 34% 30.05 in 10.0 mi South 8.1 mph - N/A   Partly Cloudy
3:53 PM 75.9 °F 48.9 °F 38% 30.04 in 10.0 mi South 10.4 mph - N/A   Mostly Cloudy
4:53 PM 75.9 °F 46.9 °F 36% 30.04 in 10.0 mi NNE 5.8 mph - N/A   Mostly Cloudy
5:53 PM 75.9 °F 48.0 °F 37% 30.04 in 10.0 mi Calm Calm - N/A   Overcast
6:53 PM 73.9 °F 46.0 °F 37% 30.05 in 10.0 mi SSW 6.9 mph - N/A   Overcast
7:53 PM 71.1 °F 46.0 °F 41% 30.06 in 10.0 mi South 4.6 mph - N/A   Clear
8:53 PM 64.0 °F 48.0 °F 56% 30.08 in 10.0 mi Calm Calm - N/A   Clear
9:53 PM 61.0 °F 48.0 °F 62% 30.10 in 10.0 mi Calm Calm - N/A   Clear
10:53 PM 57.9 °F 46.9 °F 67% 30.10 in 10.0 mi Calm Calm - N/A   Clear
11:53 PM 55.9 °F 46.9 °F 72% 30.10 in 10.0 mi Calm Calm - N/A   Clear